TimeEST,TemperatureF,Dew PointF,Humidity,Sea Level PressureIn,VisibilityMPH,Wind Direction,Wind SpeedMPH,Gust SpeedMPH,PrecipitationIn,Events,Conditions,WindDirDegrees,DateUTC
12:55 AM,43.3,31.3,62,29.76,10.0,WNW,10.4,-,N/A,,Overcast,290,2012-11-04 04:55:00
1:55 AM,42.8,31.3,64,29.76,10.0,WNW,10.4,-,N/A,,Mostly Cloudy,290,2012-11-04 05:55:00
1:55 AM,42.8,32.0,66,29.78,10.0,West,6.9,-,N/A,,Overcast,280,2012-11-04 06:55:00
2:55 AM,43.0,32.2,66,29.78,10.0,WNW,9.2,-,N/A,,Overcast,290,2012-11-04 07:55:00
3:55 AM,43.0,32.7,67,29.79,10.0,WNW,6.9,-,N/A,,Overcast,300,2012-11-04 08:55:00
4:55 AM,42.6,32.2,67,29.80,10.0,NW,6.9,17.3,N/A,,Mostly Cloudy,310,2012-11-04 09:55:00
5:55 AM,40.8,32.2,71,29.81,10.0,West,6.9,-,N/A,,Partly Cloudy,280,2012-11-04 10:55:00
6:55 AM,41.0,32.0,70,29.83,10.0,West,8.1,-,N/A,,Partly Cloudy,280,2012-11-04 11:55:00
7:55 AM,43.9,32.5,64,29.85,10.0,WNW,11.5,-,N/A,,Partly Cloudy,290,2012-11-04 12:55:00
8:55 AM,46.2,32.2,58,29.85,10.0,WNW,12.7,-,N/A,,Partly Cloudy,290,2012-11-04 13:55:00
9:55 AM,49.1,32.4,53,29.86,10.0,West,9.2,-,N/A,,Scattered Clouds,280,2012-11-04 14:55:00
10:55 AM,51.3,32.0,48,29.84,10.0,West,13.8,-,N/A,,Scattered Clouds,280,2012-11-04 15:55:00
11:55 AM,52.5,32.2,46,29.84,10.0,West,10.4,21.9,N/A,,Scattered Clouds,280,2012-11-04 16:55:00
12:55 PM,52.3,31.6,45,29.83,10.0,West,15.0,20.7,N/A,,Scattered Clouds,280,2012-11-04 17:55:00
1:55 PM,48.9,30.0,48,29.83,10.0,WNW,13.8,-,N/A,,Scattered Clouds,300,2012-11-04 18:55:00
2:55 PM,46.8,30.2,53,29.84,10.0,West,11.5,-,N/A,,Mostly Cloudy,270,2012-11-04 19:55:00
3:55 PM,45.9,29.3,52,29.86,10.0,WNW,16.1,-,N/A,,Scattered Clouds,290,2012-11-04 20:55:00
4:55 PM,42.4,28.2,57,29.88,10.0,WNW,10.4,-,N/A,,Scattered Clouds,290,2012-11-04 21:55:00
5:55 PM,41.2,28.0,60,29.90,10.0,WNW,11.5,-,N/A,,Scattered Clouds,300,2012-11-04 22:55:00
6:55 PM,39.7,28.0,63,29.91,10.0,WNW,9.2,-,N/A,,Partly Cloudy,290,2012-11-04 23:55:00
7:55 PM,38.5,28.0,66,29.92,10.0,WNW,6.9,-,N/A,,Partly Cloudy,290,2012-11-05 00:55:00
8:55 PM,38.3,28.8,69,29.94,10.0,WNW,4.6,-,N/A,,Mostly Cloudy,290,2012-11-05 01:55:00
9:55 PM,38.7,28.2,66,29.94,10.0,WNW,5.8,-,N/A,,Overcast,290,2012-11-05 02:55:00
10:55 PM,38.5,27.5,65,29.94,10.0,NW,10.4,-,N/A,,Overcast,310,2012-11-05 03:55:00